When you browse on this site, cookies collect data to enhance your experience and personalize the content and advertising you see.
Visit our Privacy Policy to learn more. By continuing to use the site, you agree to this use of cookies and data.
  • In Schweiz
  • Länderverzeichnis
  • Für 7 Tage
  • Wassertemperatur
  • Wetterkarte
  • Widgets
  • user-avatar
    Anmelden

    Stündliche Wetter Vinh

    Heute, 24 August, Samstag

    Zeit Temperatur Niederschläge Wind Luftdruck Luftfeuchtigkeit
    00:00 +26°C° 0.1 mm 1 m/S 744 mmHg 94%
    01:00 +26°C° 0.1 mm 1 m/S 744 mmHg 95%
    02:00 +26°C° 0.3 mm 1 m/S 743 mmHg 95%
    03:00 +26°C° 0.3 mm 1 m/S 743 mmHg 95%
    04:00 +24°C° 0.3 mm 0 m/S 743 mmHg 95%
    05:00 +24°C° 0.2 mm 0 m/S 743 mmHg 94%
    06:00 +24°C° 0.2 mm 0 m/S 743 mmHg 94%
    07:00 +26°C° 0.2 mm 1 m/S 743 mmHg 94%
    08:00 +28°C° 0.2 mm 1 m/S 743 mmHg 87%
    09:00 +30°C° 0.2 mm 1 m/S 743 mmHg 80%
    10:00 +31°C° 0.2 mm 1 m/S 743 mmHg 73%
    11:00 +31°C° 1.2 mm 1 m/S 743 mmHg 74%
    12:00 +32°C° 1.2 mm 1 m/S 742 mmHg 74%
    13:00 +32°C° 1.2 mm 1 m/S 742 mmHg 75%
    14:00 +31°C° 2.3 mm 1 m/S 742 mmHg 78%
    15:00 +31°C° 2.3 mm 1 m/S 741 mmHg 81%
    16:00 +31°C° 2.3 mm 1 m/S 741 mmHg 85%
    17:00 +29°C° 0.9 mm 1 m/S 741 mmHg 87%
    18:00 +28°C° 0.9 mm 1 m/S 741 mmHg 89%
    19:00 +27°C° 0.9 mm 1 m/S 741 mmHg 92%
    20:00 +27°C° 0 mm 1 m/S 742 mmHg 92%
    21:00 +26°C° 0 mm 1 m/S 743 mmHg 91%
    22:00 +26°C° 0 mm 1 m/S 743 mmHg 91%
    23:00 +26°C° 0 mm 1 m/S 743 mmHg 91%

    Morgen, 25 August, Sonntag

    Zeit Temperatur Niederschläge Wind Luftdruck Luftfeuchtigkeit
    00:00 +26°C° 0 mm 1 m/S 743 mmHg 90%
    01:00 +25°C° 0 mm 1 m/S 742 mmHg 90%
    02:00 +25°C° 0 mm 1 m/S 742 mmHg 89%
    03:00 +26°C° 0 mm 1 m/S 742 mmHg 88%
    04:00 +26°C° 0 mm 1 m/S 741 mmHg 87%
    05:00 +26°C° 0 mm 1 m/S 742 mmHg 86%
    06:00 +26°C° 0 mm 1 m/S 742 mmHg 85%
    07:00 +27°C° 0 mm 1 m/S 743 mmHg 84%
    08:00 +27°C° 0 mm 0 m/S 743 mmHg 78%
    09:00 +28°C° 0 mm 0 m/S 743 mmHg 73%
    10:00 +30°C° 0 mm 0 m/S 743 mmHg 67%
    11:00 +33°C° 0.2 mm 1 m/S 743 mmHg 64%
    12:00 +33°C° 0.2 mm 1 m/S 742 mmHg 61%
    13:00 +34°C° 0.2 mm 1 m/S 741 mmHg 58%
    14:00 +34°C° 0.3 mm 1 m/S 741 mmHg 62%
    15:00 +33°C° 0.3 mm 1 m/S 740 mmHg 67%
    16:00 +33°C° 0.3 mm 1 m/S 739 mmHg 71%
    17:00 +31°C° 0.7 mm 1 m/S 740 mmHg 78%
    18:00 +30°C° 0.7 mm 1 m/S 740 mmHg 84%
    19:00 +26°C° 0.7 mm 0 m/S 741 mmHg 90%
    20:00 +26°C° 0.2 mm 0 m/S 741 mmHg 91%
    21:00 +27°C° 0.2 mm 1 m/S 742 mmHg 91%
    22:00 +27°C° 0.2 mm 1 m/S 742 mmHg 92%
    23:00 +27°C° 0 mm 1 m/S 742 mmHg 92%

    übermorgen, 26 August, Montag

    Zeit Temperatur Niederschläge Wind Luftdruck Luftfeuchtigkeit
    00:00 +27°C° 0 mm 1 m/S 742 mmHg 92%
    01:00 +27°C° 0 mm 1 m/S 741 mmHg 92%
    02:00 +27°C° 0.2 mm 1 m/S 741 mmHg 92%
    03:00 +27°C° 0.2 mm 1 m/S 741 mmHg 92%
    04:00 +27°C° 0.2 mm 1 m/S 740 mmHg 91%
    05:00 +27°C° 0.1 mm 1 m/S 741 mmHg 91%
    06:00 +27°C° 0.1 mm 1 m/S 741 mmHg 90%
    07:00 +28°C° 0.1 mm 1 m/S 742 mmHg 89%
    08:00 +29°C° 0.1 mm 1 m/S 742 mmHg 82%
    09:00 +31°C° 0.1 mm 1 m/S 742 mmHg 76%
    10:00 +32°C° 0.1 mm 1 m/S 742 mmHg 70%
    11:00 +33°C° 0.4 mm 1 m/S 742 mmHg 67%
    12:00 +34°C° 0.4 mm 1 m/S 741 mmHg 64%
    13:00 +36°C° 0.4 mm 1 m/S 741 mmHg 61%
    14:00 +34°C° 1.9 mm 1 m/S 740 mmHg 68%
    15:00 +33°C° 1.9 mm 1 m/S 740 mmHg 75%
    16:00 +32°C° 1.9 mm 1 m/S 740 mmHg 82%
    17:00 +31°C° 1.5 mm 1 m/S 740 mmHg 85%
    18:00 +30°C° 1.5 mm 1 m/S 740 mmHg 88%
    19:00 +28°C° 1.5 mm 1 m/S 741 mmHg 91%
    20:00 +28°C° 0.2 mm 1 m/S 741 mmHg 91%
    21:00 +28°C° 0.2 mm 1 m/S 742 mmHg 92%
    22:00 +28°C° 0.2 mm 1 m/S 743 mmHg 92%
    23:00 +27°C° 0.1 mm 1 m/S 742 mmHg 91%

    27 August, Dienstag

    Zeit Temperatur Niederschläge Wind Luftdruck Luftfeuchtigkeit
    00:00 +27°C° 0.1 mm 2 m/S 742 mmHg 91%
    01:00 +27°C° 0.1 mm 2 m/S 742 mmHg 90%
    02:00 +27°C° 0.2 mm 2 m/S 741 mmHg 90%
    03:00 +27°C° 0.2 mm 2 m/S 741 mmHg 90%
    04:00 +27°C° 0.2 mm 2 m/S 741 mmHg 90%
    05:00 +27°C° 0.2 mm 1 m/S 741 mmHg 91%
    06:00 +27°C° 0.2 mm 1 m/S 742 mmHg 91%
    07:00 +27°C° 0.2 mm 1 m/S 742 mmHg 91%
    08:00 +28°C° 0 mm 1 m/S 743 mmHg 89%
    09:00 +29°C° 0 mm 1 m/S 743 mmHg 86%
    10:00 +29°C° 0 mm 1 m/S 744 mmHg 84%
    11:00 +30°C° 0.3 mm 1 m/S 743 mmHg 80%
    12:00 +31°C° 0.3 mm 1 m/S 743 mmHg 76%
    13:00 +32°C° 0.3 mm 1 m/S 742 mmHg 72%
    14:00 +32°C° 0.9 mm 1 m/S 742 mmHg 76%
    15:00 +31°C° 0.9 mm 1 m/S 741 mmHg 80%
    16:00 +31°C° 0.9 mm 1 m/S 741 mmHg 83%
    17:00 +30°C° 1.3 mm 1 m/S 741 mmHg 87%
    18:00 +29°C° 1.3 mm 1 m/S 741 mmHg 91%
    19:00 +26°C° 1.3 mm 0 m/S 742 mmHg 94%
    20:00 +26°C° 0.3 mm 0 m/S 743 mmHg 94%
    21:00 +27°C° 0.3 mm 1 m/S 743 mmHg 94%
    22:00 +27°C° 0.3 mm 1 m/S 744 mmHg 94%
    23:00 +27°C° 0.3 mm 1 m/S 744 mmHg 94%

    28 August, Mittwoch

    Zeit Temperatur Niederschläge Wind Luftdruck Luftfeuchtigkeit
    00:00 +27°C° 0.3 mm 1 m/S 744 mmHg 94%
    01:00 +26°C° 0.3 mm 1 m/S 743 mmHg 94%
    02:00 +26°C° 0 mm 1 m/S 743 mmHg 94%
    03:00 +26°C° 0 mm 1 m/S 743 mmHg 93%
    04:00 +26°C° 0 mm 1 m/S 743 mmHg 93%
    05:00 +27°C° 0 mm 1 m/S 743 mmHg 92%
    06:00 +27°C° 0 mm 1 m/S 743 mmHg 91%
    07:00 +28°C° 0 mm 1 m/S 744 mmHg 90%
    08:00 +29°C° 0 mm 1 m/S 744 mmHg 82%
    09:00 +31°C° 0 mm 1 m/S 744 mmHg 74%
    10:00 +33°C° 0 mm 1 m/S 744 mmHg 67%
    11:00 +33°C° 0.6 mm 1 m/S 743 mmHg 69%
    12:00 +33°C° 0.6 mm 1 m/S 743 mmHg 72%
    13:00 +33°C° 0.6 mm 1 m/S 742 mmHg 74%
    14:00 +33°C° 1.5 mm 1 m/S 741 mmHg 76%
    15:00 +32°C° 1.5 mm 1 m/S 741 mmHg 79%
    16:00 +32°C° 1.5 mm 1 m/S 740 mmHg 81%
    17:00 +31°C° 0.7 mm 1 m/S 741 mmHg 85%
    18:00 +28°C° 0.7 mm 0 m/S 741 mmHg 89%
    19:00 +26°C° 0.7 mm 0 m/S 741 mmHg 93%
    20:00 +26°C° 0.4 mm 0 m/S 742 mmHg 93%
    21:00 +26°C° 0.4 mm 0 m/S 742 mmHg 94%
    22:00 +26°C° 0.4 mm 0 m/S 743 mmHg 94%
    23:00 +25°C° 0.4 mm 0 m/S 743 mmHg 94%

    29 August, Donnerstag

    Zeit Temperatur Niederschläge Wind Luftdruck Luftfeuchtigkeit
    00:00 +25°C° 0.4 mm 0 m/S 742 mmHg 95%
    01:00 +25°C° 0.4 mm 0 m/S 742 mmHg 95%
    02:00 +25°C° 0.1 mm 0 m/S 742 mmHg 95%
    03:00 +25°C° 0.1 mm 0 m/S 741 mmHg 96%
    04:00 +27°C° 0.1 mm 1 m/S 741 mmHg 96%
    05:00 +27°C° 0 mm 1 m/S 741 mmHg 95%
    06:00 +28°C° 0 mm 1 m/S 742 mmHg 94%
    07:00 +28°C° 0 mm 1 m/S 742 mmHg 93%
    08:00 +29°C° 0.2 mm 1 m/S 742 mmHg 86%
    09:00 +31°C° 0.2 mm 1 m/S 742 mmHg 79%
    10:00 +32°C° 0.2 mm 2 m/S 742 mmHg 72%
    11:00 +34°C° 0.8 mm 2 m/S 741 mmHg 71%
    12:00 +34°C° 0.8 mm 2 m/S 741 mmHg 70%
    13:00 +34°C° 0.8 mm 2 m/S 740 mmHg 70%
    14:00 +34°C° 1.1 mm 2 m/S 740 mmHg 74%
    15:00 +32°C° 1.1 mm 2 m/S 739 mmHg 79%
    16:00 +31°C° 1.1 mm 2 m/S 739 mmHg 83%
    17:00 +30°C° 0.6 mm 1 m/S 739 mmHg 87%
    18:00 +29°C° 0.6 mm 1 m/S 739 mmHg 90%
    19:00 +28°C° 0.6 mm 1 m/S 740 mmHg 94%
    20:00 +28°C° 0.2 mm 1 m/S 740 mmHg 94%
    21:00 +27°C° 0.2 mm 1 m/S 741 mmHg 94%
    22:00 +27°C° 0.2 mm 1 m/S 741 mmHg 93%
    23:00 +27°C° 0.3 mm 1 m/S 741 mmHg 93%
    Mehr zeigen